TimeCST,TemperatureF,Dew PointF,Humidity,Sea Level PressureIn,VisibilityMPH,Wind Direction,Wind SpeedMPH,Gust SpeedMPH,PrecipitationIn,Events,Conditions,WindDirDegrees,DateUTC
12:21 AM,57.2,57.2,100,30.04,2.5,SE,3.5,-,0.07,Rain,Rain,130,2013-02-11 06:21:00
12:30 AM,57.2,57.2,100,30.04,5.0,Calm,Calm,-,0.08,Rain,Light Rain,0,2013-02-11 06:30:00
12:53 AM,57.0,57.0,100,30.06,5.0,SE,4.6,-,0.09,Rain,Light Rain,140,2013-02-11 06:53:00
1:03 AM,57.2,57.2,100,30.06,5.0,SSE,9.2,-,0.02,Rain,Light Rain,150,2013-02-11 07:03:00
1:15 AM,57.2,57.2,100,30.05,5.0,SSE,8.1,-,0.05,Rain,Light Rain,150,2013-02-11 07:15:00
1:53 AM,55.9,55.9,100,30.03,9.0,SSE,8.1,-,0.10,Rain,Light Rain,160,2013-02-11 07:53:00
2:07 AM,57.2,57.2,100,30.04,10.0,South,8.1,-,0.00,,Overcast,170,2013-02-11 08:07:00
2:53 AM,57.9,57.0,97,30.02,10.0,South,4.6,-,0.00,,Overcast,170,2013-02-11 08:53:00
3:53 AM,57.9,57.0,97,30.01,10.0,Calm,Calm,-,0.01,,Overcast,0,2013-02-11 09:53:00
4:53 AM,57.0,57.0,100,30.04,10.0,Calm,Calm,-,N/A,,Overcast,0,2013-02-11 10:53:00
5:53 AM,57.9,57.0,97,30.05,10.0,Calm,Calm,-,N/A,,Overcast,0,2013-02-11 11:53:00
6:17 AM,57.2,57.2,100,30.08,10.0,Calm,Calm,-,N/A,,Overcast,0,2013-02-11 12:17:00
6:49 AM,57.2,57.2,100,30.08,1.8,Calm,Calm,-,N/A,,Overcast,0,2013-02-11 12:49:00
6:53 AM,57.9,57.0,97,30.07,1.0,South,3.5,-,N/A,,Overcast,190,2013-02-11 12:53:00
7:01 AM,57.2,57.2,100,30.09,0.8,South,3.5,-,N/A,,Mist,190,2013-02-11 13:01:00
7:16 AM,57.2,57.2,100,30.11,0.2,Calm,Calm,-,0.01,Fog-Rain,Light Rain,0,2013-02-11 13:16:00
7:41 AM,57.2,57.2,100,30.14,0.5,Calm,Calm,-,0.02,Fog-Rain,Light Rain,0,2013-02-11 13:41:00
7:53 AM,57.9,57.0,97,30.13,1.0,West,3.5,-,0.02,Rain,Light Rain,280,2013-02-11 13:53:00
7:58 AM,57.2,57.2,100,30.14,3.0,Calm,Calm,-,0.00,Rain,Light Rain,0,2013-02-11 13:58:00
8:11 AM,57.2,57.2,100,30.13,4.0,NW,3.5,-,0.01,Rain,Light Rain,310,2013-02-11 14:11:00
8:31 AM,57.2,57.2,100,30.14,5.0,WNW,4.6,-,0.03,Rain,Light Rain,300,2013-02-11 14:31:00
8:53 AM,57.9,57.0,97,30.12,6.0,NW,5.8,-,0.05,Rain,Light Rain,310,2013-02-11 14:53:00
9:14 AM,57.2,57.2,100,30.17,2.5,West,3.5,-,0.04,Rain,Light Rain,280,2013-02-11 15:14:00
9:21 AM,57.2,57.2,100,30.17,3.0,West,4.6,-,0.05,Rain,Light Rain,280,2013-02-11 15:21:00
9:32 AM,57.2,57.2,100,30.17,2.5,WNW,4.6,-,0.08,Rain,Rain,300,2013-02-11 15:32:00
9:45 AM,57.2,-9999,N/A,30.16,1.8,Calm,Calm,-,0.11,Rain,Rain,0,2013-02-11 15:45:00
9:53 AM,57.9,-9999,N/A,30.14,2.0,Calm,Calm,-,0.13,Rain,Light Rain,0,2013-02-11 15:53:00
10:28 AM,57.2,-9999,N/A,30.16,1.8,Calm,Calm,-,0.06,Rain,Light Rain,0,2013-02-11 16:28:00
10:35 AM,57.2,-9999,N/A,30.15,2.5,Calm,Calm,-,0.07,Rain,Light Rain,0,2013-02-11 16:35:00
10:45 AM,57.2,-9999,N/A,30.15,3.0,NW,4.6,-,0.08,Rain,Light Rain,310,2013-02-11 16:45:00
10:53 AM,57.0,57.0,100,30.17,5.0,WSW,4.6,-,0.08,Rain,Light Rain,250,2013-02-11 16:53:00
11:53 AM,55.9,55.9,100,30.16,5.0,Calm,Calm,-,0.06,Rain,Light Rain,0,2013-02-11 17:53:00
12:10 PM,55.4,55.4,100,30.16,3.0,WSW,3.5,-,0.02,Rain,Light Rain,250,2013-02-11 18:10:00
12:21 PM,55.4,55.4,100,30.16,2.5,Variable,3.5,-,0.03,Rain,Light Rain,0,2013-02-11 18:21:00
12:30 PM,55.4,55.4,100,30.16,3.0,West,4.6,-,0.04,Rain,Light Rain,270,2013-02-11 18:30:00
12:49 PM,55.4,55.4,100,30.15,3.0,Variable,3.5,-,0.07,Rain,Light Rain,0,2013-02-11 18:49:00
12:53 PM,55.9,55.9,100,30.14,3.0,Calm,Calm,-,0.07,Rain,Light Rain,0,2013-02-11 18:53:00
1:26 PM,55.4,55.4,100,30.14,2.5,WNW,4.6,-,0.04,Rain,Rain,300,2013-02-11 19:26:00
1:37 PM,55.4,55.4,100,30.14,3.0,WNW,4.6,-,0.06,Rain,Light Rain,300,2013-02-11 19:37:00
1:53 PM,55.0,54.0,96,30.13,3.0,North,4.6,-,0.09,Rain,Rain,350,2013-02-11 19:53:00
2:53 PM,54.0,53.1,97,30.12,4.0,Calm,Calm,-,0.08,Rain,Light Rain,0,2013-02-11 20:53:00
3:11 PM,53.6,51.8,94,30.10,2.0,Calm,Calm,-,0.04,Rain,Rain,0,2013-02-11 21:11:00
3:27 PM,53.6,51.8,94,30.11,1.8,SSW,3.5,-,0.08,Rain,Rain,200,2013-02-11 21:27:00
3:34 PM,53.6,51.8,94,30.10,3.0,Calm,Calm,-,0.09,Rain,Light Rain,0,2013-02-11 21:34:00
3:42 PM,53.6,-9999,N/A,30.09,5.0,Calm,Calm,-,0.09,Rain,Light Rain,0,2013-02-11 21:42:00
3:53 PM,53.1,-9999,N/A,30.07,7.0,Calm,Calm,-,0.10,Rain,Light Rain,0,2013-02-11 21:53:00
4:53 PM,53.1,-9999,N/A,30.12,5.0,North,3.5,-,0.01,Rain,Light Rain,350,2013-02-11 22:53:00
5:16 PM,51.8,-9999,N/A,30.11,4.0,Calm,Calm,-,0.03,Rain,Light Rain,0,2013-02-11 23:16:00
5:53 PM,52.0,52.0,100,30.11,8.0,Calm,Calm,-,0.04,Rain,Light Rain,0,2013-02-11 23:53:00
6:53 PM,51.1,51.1,100,30.10,9.0,ENE,3.5,-,0.02,Rain,Light Rain,70,2013-02-12 00:53:00
7:53 PM,51.1,51.1,100,30.12,10.0,Calm,Calm,-,0.00,Rain,Light Rain,0,2013-02-12 01:53:00
8:53 PM,51.1,51.1,100,30.11,9.0,Calm,Calm,-,0.00,,Overcast,0,2013-02-12 02:53:00
9:53 PM,51.1,51.1,100,30.13,5.0,Calm,Calm,-,0.02,,Overcast,0,2013-02-12 03:53:00
10:53 PM,50.0,-9999,N/A,30.12,6.0,Calm,Calm,-,0.00,,Haze,0,2013-02-12 04:53:00
11:53 PM,50.0,-9999,N/A,30.12,4.0,Calm,Calm,-,N/A,,Haze,0,2013-02-12 05:53:00